Regional Weather Roundup
Issued by NWS

Home | Current Version | Previous Version | Graphics & Text | Print | Product List | Glossary On
Versions: 1 2 3 4 5 6 7 8 9 10 11 12 13 14 15 16 17 18 19 20 21 22 23 24 25 26 27 28 29 30 31 32 33 34 35 36 37 38 39 40 41 42 43 44 45 46 47 48 49 50
029
ASUS44 KJAN 191003
RWRMS

MISSISSIPPI HOURLY WEATHER ROUNDUP
NATIONAL WEATHER SERVICE JACKSON MS
500 AM CDT FRI SEP 19 2014

NOTE: "FAIR: INDICATES FEW OR NO CLOUDS BELOW 12,000 FEET WITH NO
SIGNIFICANT WEATHER AND/OR OBSTRUCTIONS TO VISIBILITY.

MSZ001>002-007>008-010>013-018>021-025>028-034>036-191100-
NORTHWEST MISSISSIPPI

CITY           SKY/WX    TMP DP  RH WIND       PRES   REMARKS
CLARKSDALE       N/A     66  66 100 CALM      29.98S VSB<1/4
CLEVELAND      FAIR      66  66 100 CALM      29.95S
GREENWOOD      FOG       67  66  97 N3        29.95S VSB 1/4
GREENVILLE     PTCLDY    66  64  93 N5        29.94F FOG
GRENADA        CLOUDY    64  64 100 CALM      29.96S VSB 1/2
OLIVE BRANCH   CLOUDY    63 N/A N/A CALM      29.99S VSB 1/4
OXFORD         FAIR      63  61  94 CALM      30.00S
TUNICA         FOG       61  61 100 CALM      29.99S VSB 1/2
$$

MSZ003>006-009-014>017-022>024-029>033-037>039-191100-
NORTHEAST MISSISSIPPI

CITY           SKY/WX    TMP DP  RH WIND       PRES   REMARKS
COLUMBUS AFB   CLOUDY    68  68 100 CALM      29.97S
CORINTH        FOG       66  66 100 CALM      29.99S VSB<1/4
GOLDN TRIANGLE MOCLDY    68  64  88 CALM      29.98R
STARKVILLE     CLOUDY    68  64  88 CALM      29.98R
TUPELO         FOG       67  65  93 NE3       29.98R VSB 1/2
$$

MSZ040-058-191100-
CENTRAL MISSISSIPPI

CITY           SKY/WX    TMP DP  RH WIND       PRES   REMARKS
JACKSON INTL   MOCLDY    67  66  97 CALM      29.95R
JACKSON HAWKNS CLEAR     67  65  93 CALM      29.95S
MERIDIAN KEY   PTCLDY    69  67  93 CALM      29.96R
MERIDIAN NAS   MOCLDY    70  68  93 CALM      29.97R FOG
RAYMOND        FAIR      66  61  82 CALM      29.95R
VICKSBURG      CLEAR     66  64  93 CALM      29.94R
$$

MSZ059>079-191100-
SOUTH MISSISSIPPI

CITY           SKY/WX    TMP DP  RH WIND       PRES   REMARKS
BROOKHAVEN     FAIR      68  68 100 CALM      29.95S FOG
COLUMBIA       FAIR      68  68 100 CALM      29.92R FOG
HATTIESBURG    MOCLDY    70  68  93 CALM      29.94S
MCCOMB         MOCLDY    70  68  93 NW3       29.93S FOG
NATCHEZ        MOCLDY    70  66  88 N3        29.93R
PINE BELT      MOCLDY   N/A N/A N/A NE5       29.95R
$$

MSZ080>082-191100-
COASTAL MISSISSIPPI

CITY           SKY/WX    TMP DP  RH WIND       PRES   REMARKS
BILOXI         CLOUDY    72  69  91 NE5       29.92R
PASCAGOULA     CLOUDY    71  70  96 N5        29.92R
GULFPORT       CLOUDY    72  69  90 CALM      29.91R
$$



USA.gov is the U.S. government's official web portal to all federal, state and local government web resources and services.